Content
SEND FEEDBACK

Daily
Averages
Monthly
Summary
United States of America

BEN WHEELER, TEXAS


Home > North America > United States > Texas
Elevation: 490 feet     Latitude: 32 23N     Longitude: 095 38W

WEATHER
 
SELECT A DAY
Number of Records: 188,768;   Date Range: 1/1/95 - 7/26/14
 
SHARE

PRINT THIS DATA

[ ← Previous Day ]
WEATHER ALMANAC - JANUARY 24, 2013
[ Next Day → ]
[ °C ]   °F
Weather ElementAverageHighLow
Temperature63.7 °F71.6 °F (2:29 pm)54 °F (2:53 am)
Dewpoint56.7 °F59 °F (8:53 pm)52 °F (1:53 am)
Humidity79.2 %97 % (5:53 am)60 % (2:29 pm)
Wind Speed10.7 mph15 mph (3:53 pm)
Wind Gust19.6 mph (3:29 pm)
Weather ElementAverage
Visibility9 mi
Wind DirectionS (182.6 °)

Weather ElementTotal
Precipitation---
Heating Degree Days2.2 (Base 65)
Growing Degree Days12.8 (Base 50)
Averaged from 31 records on January 24, 2013
WEATHER CONDITIONS BREAKOUT
WIND DIRECTION BREAKOUT
WEATHER BY HOUR - JANUARY 24, 2013
[ °C ]   °F
Local TimeTemperatureDewpointHumidityBarometerVisibilityWind DirectionWind SpeedGust SpeedPrecipitationEventsConditions
1:53 AM55.0 °F52.0 °F89 %10.0 miSSE (160°)6.9 mphClear
2:53 AM54.0 °F52.0 °F93 %10.0 miSouth (170°)6.9 mphClear
3:53 AM54.0 °F52.0 °F93 %8.0 miSouth (180°)8.1 mphClear
4:53 AM54.0 °F52.0 °F93 %6.0 miSouth (180°)6.9 mphClear
5:53 AM54.0 °F53.1 °F97 %4.0 miSouth (180°)9.2 mphClear
6:33 AM55.4 °F53.6 °F94 %4.0 miSouth (180°)9.2 mphMostly Cloudy
6:53 AM57.0 °F55.0 °F93 %30.21 in7.0 miSouth (190°)8.1 mphOvercast
7:53 AM59.0 °F57.0 °F93 %30.21 in5.0 miSSW (200°)9.2 mphOvercast
8:53 AM60.1 °F57.9 °F93 %30.23 in7.0 miSSW (210°)10.4 mphOvercast
9:53 AM62.1 °F57.9 °F86 %30.24 in9.0 miSSW (210°)10.4 mphOvercast
10:53 AM64.9 °F57.9 °F78 %30.23 in10.0 miSSW (210°)12.7 mphOvercast
11:02 AM64.4 °F57.2 °F77 %30.23 in10.0 miSSW (210°)13.8 mphOvercast
11:53 AM66.0 °F57.9 °F75 %30.21 in10.0 miSSW (210°)11.5 mphOvercast
12:53 PM69.1 °F57.9 °F68 %30.17 in10.0 miSSW (200°)11.5 mphOvercast
1:53 PM69.1 °F57.9 °F68 %30.15 in10.0 miSouth (190°)12.7 mphScattered Clouds
2:00 PM69.8 °F57.2 °F64 %30.16 in10.0 miSSW (210°)11.5 mphMostly Cloudy
2:14 PM69.8 °F57.2 °F64 %30.15 in10.0 miSSW (200°)13.8 mphScattered Clouds
2:29 PM71.6 °F57.2 °F60 %30.15 in10.0 miSouth (170°)10.4 mphMostly Cloudy
2:53 PM70.0 °F57.9 °F65 %30.14 in10.0 miSSW (200°)13.8 mphMostly Cloudy
3:05 PM69.8 °F57.2 °F64 %30.14 in10.0 miSouth (180°)13.8 mphPartly Cloudy
3:29 PM69.8 °F57.2 °F64 %30.13 in10.0 miSouth (180°)12.7 mph19.6 mphMostly Cloudy
3:39 PM71.6 °F57.2 °F60 %30.13 in10.0 miSouth (180°)12.7 mphScattered Clouds
3:53 PM70.0 °F57.9 °F65 %30.12 in10.0 miSouth (180°)15.0 mphPartly Cloudy
4:53 PM69.1 °F57.9 °F68 %30.11 in10.0 miSouth (170°)12.7 mphPartly Cloudy
5:53 PM66.0 °F57.9 °F75 %30.11 in10.0 miSouth (170°)6.9 mphPartly Cloudy
6:53 PM63.0 °F57.9 °F84 %30.10 in10.0 miSE (140°)9.2 mphClear
7:53 PM63.0 °F57.9 °F84 %30.10 in10.0 miSSE (150°)9.2 mphPartly Cloudy
8:53 PM64.0 °F59.0 °F84 %30.09 in10.0 miSSE (150°)10.4 mphClear
9:53 PM63.0 °F59.0 °F87 %30.09 in10.0 miSSE (150°)9.2 mphOvercast
10:53 PM62.1 °F59.0 °F90 %30.09 in10.0 miSouth (170°)9.2 mphClear
11:53 PM63.0 °F59.0 °F87 %30.07 in10.0 miSouth (180°)15.0 mphClear
Hourly data recorded from KTYR, located miles away from Ben Wheeler, Texas







STORIES FROM OUR PARTNERS